����������;��������(kWh)
2019-07-15 00:00;79,2
2019-07-15 00:15;77,25
2019-07-15 00:30;78,45
2019-07-15 00:45;77,75
2019-07-15 01:00;78,25
2019-07-15 01:15;78,5
2019-07-15 01:30;78,65
2019-07-15 01:45;78,7
2019-07-15 02:00;80,45
2019-07-15 02:15;78,7
2019-07-15 02:30;78,25
2019-07-15 02:45;79,45
2019-07-15 03:00;79,3
2019-07-15 03:15;81,55
2019-07-15 03:30;82,85
2019-07-15 03:45;82,45
2019-07-15 04:00;83,05
2019-07-15 04:15;84,35
2019-07-15 04:30;84,2
2019-07-15 04:45;85,45
2019-07-15 05:00;84,15
2019-07-15 05:15;85,5
2019-07-15 05:30;83,55
2019-07-15 05:45;84,3
2019-07-15 06:00;81,8
2019-07-15 06:15;79,3
2019-07-15 06:30;77,65
2019-07-15 06:45;74,85
2019-07-15 07:00;75,25
2019-07-15 07:15;78,35
2019-07-15 07:30;133,05
2019-07-15 07:45;144
2019-07-15 08:00;116,9
2019-07-15 08:15;104,45
2019-07-15 08:30;111,85
2019-07-15 08:45;130,6
2019-07-15 09:00;150,7
2019-07-15 09:15;161
2019-07-15 09:30;169,15
2019-07-15 09:45;177,2
2019-07-15 10:00;190,3
2019-07-15 10:15;203
2019-07-15 10:30;208,45
2019-07-15 10:45;216,85
2019-07-15 11:00;216,25
2019-07-15 11:15;239,6
2019-07-15 11:30;228,1
2019-07-15 11:45;239,85
2019-07-15 12:00;229,15
2019-07-15 12:15;235,3
2019-07-15 12:30;244,75
2019-07-15 12:45;234,85
2019-07-15 13:00;254
2019-07-15 13:15;238,05
2019-07-15 13:30;246,85
2019-07-15 13:45;239,15
2019-07-15 14:00;241,6
2019-07-15 14:15;238,35
2019-07-15 14:30;230,5
2019-07-15 14:45;230,8
2019-07-15 15:00;211
2019-07-15 15:15;202,95
2019-07-15 15:30;196,8
2019-07-15 15:45;178,8
2019-07-15 16:00;173,1
2019-07-15 16:15;160,05
2019-07-15 16:30;163,9
2019-07-15 16:45;143,25
2019-07-15 17:00;147,9
2019-07-15 17:15;128,75
2019-07-15 17:30;142,05
2019-07-15 17:45;129,45
2019-07-15 18:00;128,5
2019-07-15 18:15;128,2
2019-07-15 18:30;123,75
2019-07-15 18:45;125,15
2019-07-15 19:00;121,15
2019-07-15 19:15;121,8
2019-07-15 19:30;121,9
2019-07-15 19:45;121,8
2019-07-15 20:00;114,65
2019-07-15 20:15;113,2
2019-07-15 20:30;111,8
2019-07-15 20:45;110,95
2019-07-15 21:00;111,1
2019-07-15 21:15;111,1
2019-07-15 21:30;109,3
2019-07-15 21:45;108,35
2019-07-15 22:00;108,75
2019-07-15 22:15;96
2019-07-15 22:30;91,2
2019-07-15 22:45;93,7
2019-07-15 23:00;99,6
2019-07-15 23:15;93,05
2019-07-15 23:30;94,65
2019-07-15 23:45;99,15
2019-07-16 00:00;86,35
2019-07-16 00:15;85,55
2019-07-16 00:30;84,85
2019-07-16 00:45;85,85
2019-07-16 01:00;85,4
2019-07-16 01:15;84,5
2019-07-16 01:30;85,3
2019-07-16 01:45;83,65
2019-07-16 02:00;83
2019-07-16 02:15;83,6
2019-07-16 02:30;83
2019-07-16 02:45;83,35
2019-07-16 03:00;83
2019-07-16 03:15;83,6
2019-07-16 03:30;83,9
2019-07-16 03:45;84,85
2019-07-16 04:00;85,9
2019-07-16 04:15;85,85
2019-07-16 04:30;85,25
2019-07-16 04:45;85,25
2019-07-16 05:00;83,8
2019-07-16 05:15;89,35
2019-07-16 05:30;89,15
2019-07-16 05:45;88,25
2019-07-16 06:00;88,85
2019-07-16 06:15;86,2
2019-07-16 06:30;83,2
2019-07-16 06:45;84,6
2019-07-16 07:00;84,3
2019-07-16 07:15;84,1
2019-07-16 07:30;144,65
2019-07-16 07:45;146,7
2019-07-16 08:00;103,5
2019-07-16 08:15;120,7
2019-07-16 08:30;122,1
2019-07-16 08:45;134,2
2019-07-16 09:00;135,95
2019-07-16 09:15;142,75
2019-07-16 09:30;178,05
2019-07-16 09:45;176,65
2019-07-16 10:00;194,6
2019-07-16 10:15;197,8
2019-07-16 10:30;206,1
2019-07-16 10:45;216
2019-07-16 11:00;222,5
2019-07-16 11:15;221
2019-07-16 11:30;226,7
2019-07-16 11:45;226,4
2019-07-16 12:00;233,7
2019-07-16 12:15;237,25
2019-07-16 12:30;236,7
2019-07-16 12:45;235,3
2019-07-16 13:00;234,6
2019-07-16 13:15;232,75
2019-07-16 13:30;236,3
2019-07-16 13:45;235,8
2019-07-16 14:00;240,8
2019-07-16 14:15;235,85
2019-07-16 14:30;233,8
2019-07-16 14:45;228,95
2019-07-16 15:00;224,8
2019-07-16 15:15;206,25
2019-07-16 15:30;188,45
2019-07-16 15:45;186,45
2019-07-16 16:00;168,85
2019-07-16 16:15;158,25
2019-07-16 16:30;147,95
2019-07-16 16:45;141,3
2019-07-16 17:00;134,9
2019-07-16 17:15;129,6
2019-07-16 17:30;131,8
2019-07-16 17:45;116,85
2019-07-16 18:00;118,15
2019-07-16 18:15;115,4
2019-07-16 18:30;114,9
2019-07-16 18:45;111,7
2019-07-16 19:00;110,7
2019-07-16 19:15;110,1
2019-07-16 19:30;112,7
2019-07-16 19:45;111,35
2019-07-16 20:00;110,7
2019-07-16 20:15;108,75
2019-07-16 20:30;106,65
2019-07-16 20:45;108,2
2019-07-16 21:00;108,1
2019-07-16 21:15;109,15
2019-07-16 21:30;109,6
2019-07-16 21:45;107,5
2019-07-16 22:00;107,4
2019-07-16 22:15;106,45
2019-07-16 22:30;103,75
2019-07-16 22:45;101,45
2019-07-16 23:00;98,1
2019-07-16 23:15;92
2019-07-16 23:30;95,35
2019-07-16 23:45;98,55
2019-07-17 00:00;85,5
2019-07-17 00:15;85,7
2019-07-17 00:30;87,2
2019-07-17 00:45;86,3
2019-07-17 01:00;84,05
2019-07-17 01:15;86,1
2019-07-17 01:30;84,45
2019-07-17 01:45;84,15
2019-07-17 02:00;84,9
2019-07-17 02:15;84,4
2019-07-17 02:30;83,15
2019-07-17 02:45;86,7
2019-07-17 03:00;84,05
2019-07-17 03:15;85,65
2019-07-17 03:30;85,7
2019-07-17 03:45;83,95
2019-07-17 04:00;84,45
2019-07-17 04:15;84,05
2019-07-17 04:30;83,45
2019-07-17 04:45;83,1
2019-07-17 05:00;83,6
2019-07-17 05:15;85,7
2019-07-17 05:30;85
2019-07-17 05:45;85,1
2019-07-17 06:00;84,7
2019-07-17 06:15;80,05
2019-07-17 06:30;79,45
2019-07-17 06:45;77,75
2019-07-17 07:00;80,9
2019-07-17 07:15;77,6
2019-07-17 07:30;131,45
2019-07-17 07:45;130,55
2019-07-17 08:00;91,5
2019-07-17 08:15;109,7
2019-07-17 08:30;104,9
2019-07-17 08:45;117,4
2019-07-17 09:00;132,05
2019-07-17 09:15;126
2019-07-17 09:30;131,25
2019-07-17 09:45;150,5
2019-07-17 10:00;147,15
2019-07-17 10:15;154,55
2019-07-17 10:30;166,6
2019-07-17 10:45;159,75
2019-07-17 11:00;161,9
2019-07-17 11:15;171,35
2019-07-17 11:30;179,95
2019-07-17 11:45;171,2
2019-07-17 12:00;176,15
2019-07-17 12:15;188,2
2019-07-17 12:30;178,9
2019-07-17 12:45;181,65
2019-07-17 13:00;186,95
2019-07-17 13:15;174,4
2019-07-17 13:30;192,3
2019-07-17 13:45;195,85
2019-07-17 14:00;184,15
2019-07-17 14:15;193,85
2019-07-17 14:30;201,45
2019-07-17 14:45;189,15
2019-07-17 15:00;200,7
2019-07-17 15:15;180,45
2019-07-17 15:30;179,4
2019-07-17 15:45;176,2
2019-07-17 16:00;171
2019-07-17 16:15;160,55
2019-07-17 16:30;151,3
2019-07-17 16:45;150,65
2019-07-17 17:00;141,35
2019-07-17 17:15;142,4
2019-07-17 17:30;146,35
2019-07-17 17:45;121,4
2019-07-17 18:00;115,45
2019-07-17 18:15;115,25
2019-07-17 18:30;114,6
2019-07-17 18:45;113,4
2019-07-17 19:00;112,5
2019-07-17 19:15;115,9
2019-07-17 19:30;124,25
2019-07-17 19:45;108,65
2019-07-17 20:00;99,5
2019-07-17 20:15;99,85
2019-07-17 20:30;97,75
2019-07-17 20:45;99,35
2019-07-17 21:00;100,8
2019-07-17 21:15;97,65
2019-07-17 21:30;98,35
2019-07-17 21:45;97,5
2019-07-17 22:00;97,35
2019-07-17 22:15;93,8
2019-07-17 22:30;91,45
2019-07-17 22:45;93,35
2019-07-17 23:00;99,5
2019-07-17 23:15;93,3
2019-07-17 23:30;94,8
2019-07-17 23:45;99,2
2019-07-18 00:00;86,05
2019-07-18 00:15;87,6
2019-07-18 00:30;85,65
2019-07-18 00:45;86
2019-07-18 01:00;84,25
2019-07-18 01:15;83,15
2019-07-18 01:30;82,9
2019-07-18 01:45;85,15
2019-07-18 02:00;83,95
2019-07-18 02:15;82,85
2019-07-18 02:30;81,45
2019-07-18 02:45;83,2
2019-07-18 03:00;82,05
2019-07-18 03:15;81,65
2019-07-18 03:30;83,7
2019-07-18 03:45;82,9
2019-07-18 04:00;82,4
2019-07-18 04:15;83,95
2019-07-18 04:30;83,4
2019-07-18 04:45;85,75
2019-07-18 05:00;84,4
2019-07-18 05:15;84,05
2019-07-18 05:30;84,45
2019-07-18 05:45;84,85
2019-07-18 06:00;84,9
2019-07-18 06:15;81,05
2019-07-18 06:30;78,8
2019-07-18 06:45;89,1
2019-07-18 07:00;93,35
2019-07-18 07:15;90,25
2019-07-18 07:30;146,75
2019-07-18 07:45;144,9
2019-07-18 08:00;103,95
2019-07-18 08:15;119,1
2019-07-18 08:30;119,1
2019-07-18 08:45;136,45
2019-07-18 09:00;143,65
2019-07-18 09:15;153,4
2019-07-18 09:30;171,9
2019-07-18 09:45;178,55
2019-07-18 10:00;182,55
2019-07-18 10:15;186,2
2019-07-18 10:30;190,75
2019-07-18 10:45;193,5
2019-07-18 11:00;199,5
2019-07-18 11:15;185,75
2019-07-18 11:30;199,6
2019-07-18 11:45;191,5
2019-07-18 12:00;189,2
2019-07-18 12:15;202,75
2019-07-18 12:30;194,85
2019-07-18 12:45;190,5
2019-07-18 13:00;204,7
2019-07-18 13:15;195,9
2019-07-18 13:30;191,5
2019-07-18 13:45;197,8
2019-07-18 14:00;192,9
2019-07-18 14:15;188,35
2019-07-18 14:30;195,55
2019-07-18 14:45;188,15
2019-07-18 15:00;175,85
2019-07-18 15:15;178,55
2019-07-18 15:30;162,5
2019-07-18 15:45;164,05
2019-07-18 16:00;142,2
2019-07-18 16:15;149,45
2019-07-18 16:30;126,25
2019-07-18 16:45;120,95
2019-07-18 17:00;117,7
2019-07-18 17:15;115,4
2019-07-18 17:30;112,4
2019-07-18 17:45;105,55
2019-07-18 18:00;102,7
2019-07-18 18:15;107,65
2019-07-18 18:30;105,55
2019-07-18 18:45;103,4
2019-07-18 19:00;104,35
2019-07-18 19:15;103,6
2019-07-18 19:30;106,65
2019-07-18 19:45;105,95
2019-07-18 20:00;104,75
2019-07-18 20:15;104,95
2019-07-18 20:30;96,9
2019-07-18 20:45;91,65
2019-07-18 21:00;92,8
2019-07-18 21:15;92,95
2019-07-18 21:30;91,7
2019-07-18 21:45;93,75
2019-07-18 22:00;89,85
2019-07-18 22:15;88,15
2019-07-18 22:30;85,15
2019-07-18 22:45;84,75
2019-07-18 23:00;89,7
2019-07-18 23:15;88,75
2019-07-18 23:30;88,7
2019-07-18 23:45;95,15
2019-07-19 00:00;82,55
2019-07-19 00:15;83,85
2019-07-19 00:30;80,8
2019-07-19 00:45;81,2
2019-07-19 01:00;81,7
2019-07-19 01:15;81,6
2019-07-19 01:30;80,7
2019-07-19 01:45;80,4
2019-07-19 02:00;81,15
2019-07-19 02:15;79,45
2019-07-19 02:30;81,05
2019-07-19 02:45;82,4
2019-07-19 03:00;81,55
2019-07-19 03:15;80,8
2019-07-19 03:30;81,15
2019-07-19 03:45;81,5
2019-07-19 04:00;81,25
2019-07-19 04:15;83,55
2019-07-19 04:30;82,05
2019-07-19 04:45;81,65
2019-07-19 05:00;80,85
2019-07-19 05:15;84,2
2019-07-19 05:30;86,7
2019-07-19 05:45;82,5
2019-07-19 06:00;82,05
2019-07-19 06:15;78,25
2019-07-19 06:30;75,75
2019-07-19 06:45;75,65
2019-07-19 07:00;77,05
2019-07-19 07:15;84,1
2019-07-19 07:30;146,25
2019-07-19 07:45;143,45
2019-07-19 08:00;104,15
2019-07-19 08:15;124,9
2019-07-19 08:30;115,5
2019-07-19 08:45;138,6
2019-07-19 09:00;138,75
2019-07-19 09:15;158,75
2019-07-19 09:30;168,7
2019-07-19 09:45;176,4
2019-07-19 10:00;185,7
2019-07-19 10:15;189,3
2019-07-19 10:30;190,95
2019-07-19 10:45;188,15
2019-07-19 11:00;189,5
2019-07-19 11:15;194,2
2019-07-19 11:30;194,95
2019-07-19 11:45;198,4
2019-07-19 12:00;209,45
2019-07-19 12:15;192,8
2019-07-19 12:30;203,2
2019-07-19 12:45;200,4
2019-07-19 13:00;187,7
2019-07-19 13:15;205,45
2019-07-19 13:30;205,3
2019-07-19 13:45;212,4
2019-07-19 14:00;193,1
2019-07-19 14:15;197,45
2019-07-19 14:30;194,15
2019-07-19 14:45;178,25
2019-07-19 15:00;184,8
2019-07-19 15:15;158,25
2019-07-19 15:30;167,75
2019-07-19 15:45;153,85
2019-07-19 16:00;156,3
2019-07-19 16:15;141,65
2019-07-19 16:30;150,05
2019-07-19 16:45;126,2
2019-07-19 17:00;131,35
2019-07-19 17:15;116,3
2019-07-19 17:30;133,75
2019-07-19 17:45;113,5
2019-07-19 18:00;113,05
2019-07-19 18:15;109,65
2019-07-19 18:30;108,55
2019-07-19 18:45;106,7
2019-07-19 19:00;107,6
2019-07-19 19:15;107,4
2019-07-19 19:30;109,2
2019-07-19 19:45;112,2
2019-07-19 20:00;106,2
2019-07-19 20:15;109,15
2019-07-19 20:30;103,1
2019-07-19 20:45;104
2019-07-19 21:00;106,15
2019-07-19 21:15;105,8
2019-07-19 21:30;105,6
2019-07-19 21:45;107,5
2019-07-19 22:00;105,1
2019-07-19 22:15;102,5
2019-07-19 22:30;104,2
2019-07-19 22:45;102,65
2019-07-19 23:00;107,15
2019-07-19 23:15;101,45
2019-07-19 23:30;103,3
2019-07-19 23:45;107,5
2019-07-20 00:00;95,85
2019-07-20 00:15;88,6
2019-07-20 00:30;83,3
2019-07-20 00:45;81,15
2019-07-20 01:00;80,8
2019-07-20 01:15;79,35
2019-07-20 01:30;81,4
2019-07-20 01:45;81,1
2019-07-20 02:00;81,2
2019-07-20 02:15;80
2019-07-20 02:30;79,8
2019-07-20 02:45;81,6
2019-07-20 03:00;80,3
2019-07-20 03:15;80,75
2019-07-20 03:30;79,8
2019-07-20 03:45;80,5
2019-07-20 04:00;81,45
2019-07-20 04:15;81,2
2019-07-20 04:30;82,5
2019-07-20 04:45;0
2019-07-20 05:00;0
2019-07-20 05:15;0
2019-07-20 05:30;0
2019-07-20 05:45;0
2019-07-20 06:00;0
2019-07-20 06:15;0
2019-07-20 06:30;0
2019-07-20 06:45;0
2019-07-20 07:00;0
2019-07-20 07:15;0
2019-07-20 07:30;0
2019-07-20 07:45;0
2019-07-20 08:00;0
2019-07-20 08:15;0
2019-07-20 08:30;0
2019-07-20 08:45;0
2019-07-20 09:00;0
2019-07-20 09:15;0
2019-07-20 09:30;0
2019-07-20 09:45;0
2019-07-20 10:00;0
2019-07-20 10:15;0
2019-07-20 10:30;0
2019-07-20 10:45;0
2019-07-20 11:00;0
2019-07-20 11:15;0
2019-07-20 11:30;0
2019-07-20 11:45;0
2019-07-20 12:00;0
2019-07-20 12:15;0
2019-07-20 12:30;0
2019-07-20 12:45;0
2019-07-20 13:00;0
2019-07-20 13:15;0
2019-07-20 13:30;0
2019-07-20 13:45;0
2019-07-20 14:00;0
2019-07-20 14:15;0
2019-07-20 14:30;0
2019-07-20 14:45;0
2019-07-20 15:00;0
2019-07-20 15:15;0
2019-07-20 15:30;0
2019-07-20 15:45;0
2019-07-20 16:00;0
2019-07-20 16:15;0
2019-07-20 16:30;0
2019-07-20 16:45;0
2019-07-20 17:00;0
2019-07-20 17:15;0
2019-07-20 17:30;0
2019-07-20 17:45;0
2019-07-20 18:00;0
2019-07-20 18:15;0
2019-07-20 18:30;0
2019-07-20 18:45;0
2019-07-20 19:00;0
2019-07-20 19:15;0
2019-07-20 19:30;0
2019-07-20 19:45;0
2019-07-20 20:00;0
2019-07-20 20:15;0
2019-07-20 20:30;0
2019-07-20 20:45;0
2019-07-20 21:00;0
2019-07-20 21:15;0
2019-07-20 21:30;0
2019-07-20 21:45;0
2019-07-20 22:00;0
2019-07-20 22:15;0
2019-07-20 22:30;0
2019-07-20 22:45;0
2019-07-20 23:00;0
2019-07-20 23:15;0
2019-07-20 23:30;0
2019-07-20 23:45;0
2019-07-21 00:00;0
2019-07-21 00:15;0
2019-07-21 00:30;0
2019-07-21 00:45;0
2019-07-21 01:00;0
2019-07-21 01:15;0
2019-07-21 01:30;0
2019-07-21 01:45;0
2019-07-21 02:00;0
2019-07-21 02:15;0
2019-07-21 02:30;0
2019-07-21 02:45;0
2019-07-21 03:00;0
2019-07-21 03:15;0
2019-07-21 03:30;0
2019-07-21 03:45;0
2019-07-21 04:00;0
2019-07-21 04:15;0
2019-07-21 04:30;0
2019-07-21 04:45;0
2019-07-21 05:00;0
2019-07-21 05:15;0
2019-07-21 05:30;0
2019-07-21 05:45;0
2019-07-21 06:00;0
2019-07-21 06:15;0
2019-07-21 06:30;0
2019-07-21 06:45;0
2019-07-21 07:00;0
2019-07-21 07:15;0
2019-07-21 07:30;0
2019-07-21 07:45;0
2019-07-21 08:00;0
2019-07-21 08:15;0
2019-07-21 08:30;0
2019-07-21 08:45;0
2019-07-21 09:00;0
2019-07-21 09:15;0
2019-07-21 09:30;0
2019-07-21 09:45;0
2019-07-21 10:00;0
2019-07-21 10:15;0
2019-07-21 10:30;0
2019-07-21 10:45;0
2019-07-21 11:00;0
2019-07-21 11:15;0
2019-07-21 11:30;0
2019-07-21 11:45;0
2019-07-21 12:00;0
2019-07-21 12:15;0
2019-07-21 12:30;0
2019-07-21 12:45;0
2019-07-21 13:00;0
2019-07-21 13:15;0
2019-07-21 13:30;0
2019-07-21 13:45;0
2019-07-21 14:00;0
2019-07-21 14:15;0
2019-07-21 14:30;0
2019-07-21 14:45;0
2019-07-21 15:00;0
2019-07-21 15:15;0
2019-07-21 15:30;0
2019-07-21 15:45;0
2019-07-21 16:00;0
2019-07-21 16:15;0
2019-07-21 16:30;0
2019-07-21 16:45;0
2019-07-21 17:00;0
2019-07-21 17:15;0
2019-07-21 17:30;0
2019-07-21 17:45;0
2019-07-21 18:00;0
2019-07-21 18:15;0
2019-07-21 18:30;0
2019-07-21 18:45;0
2019-07-21 19:00;0
2019-07-21 19:15;0
2019-07-21 19:30;0
2019-07-21 19:45;0
2019-07-21 20:00;0
2019-07-21 20:15;0
2019-07-21 20:30;0
2019-07-21 20:45;0
2019-07-21 21:00;0
2019-07-21 21:15;0
2019-07-21 21:30;0
2019-07-21 21:45;0
2019-07-21 22:00;0
2019-07-21 22:15;0
2019-07-21 22:30;0
2019-07-21 22:45;0
2019-07-21 23:00;0
2019-07-21 23:15;0
2019-07-21 23:30;0
2019-07-21 23:45;0

